Location: Dehesa de la Cepeda
(40.6574°N, 4.3013°W)
Time: 23:59:58
(UTC+00:00)

Daily predictions for brighter satellites

Satellite Brightness Start Highest point End
(mag) Time Altitude Azimuth Time Altitude Azimuth Time Altitude Azimuth
CZ-2C R/B 2.9 17:14:53 10° SSE 17:19:48 86° ENE 17:24:36 10° NNW
Cosmos 1782 3.4 17:17:18 10° SSE 17:21:00 37° E 17:24:41 10° NNE
USA 267 3.5 17:18:02 10° NE 17:24:32 69° NW 17:31:01 10° WSW
Cosmos 1092 Rocket 4.1 17:18:23 10° N 17:24:40 59° E 17:30:52 10° SSE
Cosmos 1763 Rocket 4.0 17:20:52 10° SSW 17:25:52 62° WNW 17:30:57 10° NNE
GPS 2-04 Rocket1 3.9 17:22:51 10° WSW 17:26:43 40° S 17:30:35 10° ESE
CZ-2D R/B 4.2 17:24:44 10° SE 17:27:56 26° ENE 17:31:07 10° NNE
CZ-2C R/B 3.7 17:24:50 10° NE 17:28:55 23° E 17:32:58 10° SE
Cosmos 1500 3.8 17:26:39 10° NNE 17:30:03 32° ENE 17:33:25 10° SE
CZ-4C R/B 3.5 17:24:15 10° NNW 17:30:53 37° NE 17:38:28 10° ESE
H-2A R/B 2.7 17:26:38 10° SE 17:31:10 32° ENE 17:35:38 10° N
CZ-4B R/B 4.0 17:28:20 10° ESE 17:32:44 26° ENE 17:37:07 10° N
Cosmos 841 Rocket 3.5 17:28:08 10° S 17:33:14 66° ESE 17:38:21 10° NNE
Cosmos 1340 Rocket 3.7 17:30:48 10° NNW 17:34:48 56° W 17:38:47 10° S
SMAP 3.0 17:36:00 10° SSE 17:40:38 77° ENE 17:45:18 10° N
Cosmos 2360 4.2 17:35:05 10° NNW 17:40:51 81° ENE 17:46:34 10° SSE
Cosmos 1937 Rocket 3.5 17:36:27 10° NNW 17:41:47 73° ENE 17:47:04 10° SSE
USA 229 DEB 4.1 17:34:47 10° NW 17:42:15 86° WSW 17:50:08 10° SSE
USA 229 4.1 17:34:53 10° NW 17:42:21 87° WSW 17:50:13 10° SSE
Lacrosse 5 rocket 3.1 17:41:09 10° N 17:43:26 15° NNE 17:44:48 13° NE
Cosmos 921 Rocket 4.4 17:40:47 10° SE 17:43:37 18° E 17:45:21 14° ENE
AQUARIUS 4.1 17:40:25 10° SSE 17:44:52 71° ENE 17:49:21 10° N
COSMOS 2455 2.9 17:39:24 10° SSW 17:45:26 89° WNW 17:51:30 10° NNE
COSMO-SKYMED 1 3.5 17:42:26 10° NE 17:46:14 29° E 17:50:00 10° SSE
Cosmos 1627 Rocket 4.4 17:40:43 10° N 17:46:53 75° E 17:52:58 10° SSE
Cosmos 2279 Rocket 4.2 17:42:09 10° SSE 17:48:03 48° E 17:53:58 10° NNE
Cosmos 372 Rocket 4.1 17:44:32 10° N 17:49:41 54° ENE 17:54:48 10° SE
Meteor 2-21 4.4 17:43:41 10° N 17:49:46 69° E 17:55:46 10° SSE
ISS -2.9 17:48:05 10° NW 17:51:12 32° NNE 17:53:03 19° E
Cosmos 1633 Rocket 3.7 17:48:38 10° NNE 17:52:37 33° ENE 17:56:34 10° SE
Cosmos 44 Rocket 4.5 17:50:13 10° N 17:54:03 22° NE 17:56:04 17° ENE
NOAA 6 4.2 17:49:38 10° SSE 17:54:47 81° WSW 17:59:56 10° NNW
Meteor 1-26 Rocket 4.4 17:49:40 10° S 17:55:37 90° W 18:01:42 10° N
USA 234 3.3 17:49:49 10° ESE 17:56:15 63° NE 18:02:42 10° NW
SL-24 R/B - RUBIN 2 3.5 17:53:35 10° NNW 17:58:01 57° NE 18:02:15 10° SE
Cosmos 1151 Rocket 3.1 17:54:48 10° S 17:59:01 56° E 18:03:17 10° NNE
Cosmos 1666 3.0 17:55:52 10° N 17:59:22 39° ENE 18:02:50 10° SSE
PSLV R/B 3.5 17:56:17 10° SSE 17:59:57 73° ENE 18:03:40 10° N
Cosmos 1634 Rocket 4.2 18:00:02 10° SSW 18:06:20 77° W 18:12:42 10° N
Cosmos 1900 4.3 18:03:38 10° SSW 18:08:24 62° ESE 18:11:48 19° NE
X-37B 2.2 18:07:37 10° S 18:09:41 18° SE 18:10:00 18° SE
NOSS 2-2 (D) 4.5 18:04:39 10° NNW 18:10:11 77° NE 18:17:58 10° SE
Okean O Rocket 2.0 18:07:14 10° SE 18:11:23 40° ENE 18:15:34 10° N
Cosmos 2026 Rocket 4.2 18:07:23 10° NNW 18:13:29 70° W 18:19:29 10° S
Cosmos 2322 Rocket 3.5 18:10:15 10° N 18:13:53 19° NE 18:13:53 19° NE
Cosmos 1697 Rocket 3.8 18:09:41 10° NW 18:15:03 48° WSW 18:20:24 10° S
Landsat 5 3.7 18:16:56 26° NE 18:18:48 43° E 18:22:34 10° S
Cosmos 1812 2.9 18:15:26 10° SSW 18:19:15 70° W 18:23:06 10° N
Cosmos 1666 Rocket 3.4 18:15:01 10° N 18:19:28 82° E 18:23:51 10° S
Cosmos 1328 Rocket 3.5 18:15:19 10° S 18:19:42 67° E 18:24:03 10° NNE
Cosmos 1980 Rocket 2.2 18:14:21 10° NNW 18:20:03 87° WSW 18:25:40 10° SSE
SJ-11-01 4.3 18:16:38 10° SSE 18:21:14 55° ENE 18:25:52 10° N
APEX 3.8 18:18:16 10° S 18:22:01 34° ESE 18:22:09 34° ESE
Cosmos 1470 Rocket 3.9 18:18:32 10° N 18:22:46 41° ENE 18:26:59 10° SSE
MOS 1-B 4.4 18:17:16 10° SSE 18:23:02 86° WSW 18:28:52 10° NNW
Cosmos 2369 4.2 18:18:51 10° NNW 18:24:31 63° WSW 18:30:08 10° S
Meteor 1-5 Rocket 4.3 18:24:24 10° N 18:30:25 87° E 18:36:17 10° S
Cosmos 1570 Rocket 4.2 18:25:24 10° SSW 18:30:38 73° WNW 18:35:27 12° NNE
Cosmos 1814 Rocket 4.5 18:27:16 10° SSW 18:32:26 60° WNW 18:37:31 10° NNE
Cosmos 2082 Rocket 3.1 18:27:33 10° SW 18:33:00 46° WNW 18:38:28 10° NNE
SL-16 R/B 2.8 18:27:57 10° N 18:33:04 34° ENE 18:33:21 33° ENE
Meteor 2-8 Rocket 4.4 18:26:57 10° S 18:33:05 82° E 18:39:17 10° N
Meteor 1-14 Rocket 4.4 18:27:18 10° NNW 18:33:10 80° W 18:39:07 10° S
SKYMED 2 3.6 18:30:16 11° N 18:34:25 81° WNW 18:38:45 10° SSW
ATLAS CENTAUR R/B 4.1 18:27:06 10° W 18:34:44 29° NW 18:37:45 15° N
Cosmos 2298 Rocket 4.2 18:31:37 10° N 18:36:45 46° ENE 18:38:49 31° ESE
Cosmos 1655 Rocket 4.0 18:30:50 10° N 18:37:09 58° E 18:43:22 10° SSE
Cosmos 2180 Rocket 4.5 18:32:43 10° S 18:39:04 88° W 18:45:24 10° N
CZ-2C R/B 2.6 18:37:46 10° SW 18:41:25 28° SSE 18:42:01 27° SSE
DMSP B5D2-2 4.3 18:42:38 43° E 18:43:09 45° E 18:48:08 10° S
ARGOS 3.1 18:39:45 10° SSE 18:45:10 89° WSW 18:50:36 10° NNW
Cosmos 2278 3.9 18:42:30 10° NNW 18:48:12 73° WSW 18:53:49 10° SSE
Cosmos 1818 3.5 18:42:47 10° NNW 18:48:14 61° NE 18:49:43 44° ESE
deb Chang Zheng 4 4.0 18:47:51 10° S 18:52:05 60° WSW 18:56:22 10° NNW
GEOS 3 Rocket 4.4 18:54:52 34° NNE 18:54:52 34° NNE 18:58:42 10° NNW
Cosmos 836 Rocket 4.5 18:49:27 10° S 18:54:39 59° ESE 18:54:58 57° E
CZ-4C R/B 4.2 18:56:15 34° SSW 18:56:15 34° SSW 18:58:17 10° SSW
Meteor 1-27 Rocket 3.5 18:55:40 10° S 19:01:07 65° E 19:01:42 61° ENE
Cosmos 1515 Rocket 3.7 18:58:45 10° SSW 19:03:12 75° W 19:04:04 55° NNW
SL-08 RB Rocket 3.7 18:59:40 10° S 19:04:18 79° WSW 19:08:56 10° NNW
IRAS Rocket 4.3 19:04:56 55° SE 19:04:56 55° SE 19:09:49 10° S
Cosmos 1867 3.7 19:03:52 10° SSW 19:08:41 58° SE 19:08:41 58° SE
CZ-2C R/B 3.7 19:04:30 10° N 19:09:20 41° WNW 19:14:09 10° SW
H-2A R/B 3.9 19:06:04 10° SSW 19:10:33 30° W 19:14:59 10° NW
CZ-4B R/B 4.4 19:07:59 10° SSW 19:13:05 41° W 19:18:07 10° NNW
Cosmos 2150 Rocket 3.8 19:08:29 10° NNW 19:13:42 90° NNE 19:13:51 85° SSE
DMSP 5D-2 F-14 4.5 19:08:47 10° SSE 19:14:13 82° ENE 19:19:41 10° NNW
CZ-4C R/B 3.5 19:12:27 10° NW 19:19:56 63° WSW 19:28:24 10° SSE
USA 32 4.1 19:14:57 10° S 19:20:10 76° W 19:20:55 63° NNW
Cosmos 921 Rocket 4.4 19:17:44 10° SW 19:21:34 35° WNW 19:22:11 33° NW
Lacrosse 5 rocket 3.4 19:19:06 10° NW 19:20:27 20° NW 19:20:27 20° NW
ISS -0.9 19:24:56 10° WNW 19:26:04 18° W 19:26:04 18° W
Cosmos 1125 Rocket 3.8 19:23:25 10° NNW 19:27:56 62° NW 19:27:56 62° NW
Cosmos 44 Rocket 4.3 19:31:10 10° NW 19:34:51 43° WNW 19:34:51 43° WNW
Cosmos 2360 Rocket 4.2 19:32:48 10° NNW 19:33:59 16° N 19:33:59 16° N
USA 234 4.5 19:33:28 10° SSE 19:39:26 37° SW 19:45:26 10° WNW
Meteor 1-11 Rocket 4.5 19:37:14 10° NNW 19:42:40 50° W 19:48:13 10° SSW
Okean O Rocket 4.3 19:44:48 10° SW 19:47:53 18° W 19:50:59 10° NW
Cosmos 2322 Rocket 3.8 19:53:14 10° NNW 19:55:46 27° NW 19:55:46 27° NW
SL-16 R/B 3.9 20:12:02 10° NW 20:15:18 28° WNW 20:15:18 28° WNW
